User: anonymous   Login
Location: Unspecified
(0.0000°N, 0.0000°E)
Time: 23:30:06
(UTC+00:00)
Language:

Kosmos-1333 - Orbit

View from above orbital plane
View from above orbital plane
View from above satellite
View from above satellite

Ground track
Ground track

The orbit data is extracted from the following two-line orbital elements,

1 13033U 82003A   21023.51481407 -.00000013  00000-0 -29492-4 0  9997
2 13033  82.9425 181.0967 0031117 271.2683 148.7726 13.73242465955692
Epoch (UTC): 23 January 2021 12:21:19
Eccentricity: 0.0031117
inclination: 82.9425°
perigee height: 965 km
apogee height: 1011 km
right ascension of ascending node: 181.0967°
argument of perigee: 271.2683°
revolutions per day: 13.73242465
mean anomaly at epoch: 148.7726°
orbit number at epoch: 95569

The dashed part of the orbit path shows where the satellite is in the earth's shadow,  

DLR